Probability
3 3 3 3 0 0 0 0 0 0 0 0 0 0 0 0 0 0 0 0 0 0 0 0 0 0 0 0 0 0 0 0 0 0 0 0 0 0 0 0 0 0 0
3 3 3 3 3 0 0 0 0 0 0 0 0 0 0 0 0 0 0 0 0 0 0 0 0 0 0 0 0 0 0 0 0 0 0 0 0 0 0 0 0 0 0
3 3 3 3 3 0 0 0 0 0 0 0 0 0 0 0 0 0 0 0 0 0 0 0 0 0 0 0 0 0 0 0 0 0 0 0 0 0 0 0 0 0 0
3 3 3 3 3 3 0 0 0 0 0 0 0 0 0 0 0 0 0 0 0 0 0 0 0 0 0 0 0 0 0 0 0 0 0 0 0 0 0 0 0 0 0
3 3 3 3 3 3 0 0 0 0 0 0 0 0 0 0 0 0 0 0 0 0 0 0 0 0 0 0 0 0 0 0 0 0 0 0 0 0 0 0 0 0 0
3 3 3 3 3 3 0 0 0 0 0 0 0 0 0 0 0 0 0 0 0 0 0 0 0 0 0 0 0 0 0 0 0 0 0 0 0 0 0 0 0 0 0
3 3 3 3 3 3 3 0 0 0 0 0 0 0 0 0 0 0 0 0 0 0 0 0 0 0 0 0 0 0 0 0 0 0 0 0 0 0 0 0 0 0 0
3 3 3 3 3 3 0 0 0 0 0 0 0 0 0 0 0 0 0 0 0 0 0 0 0 0 0 0 0 0 0 0 0 0 0 0 0 0 0 0 0 0 0
3 3 3 3 3 3 3 0 0 0 0 0 0 0 0 0 0 0 0 0 0 0 0 0 0 0 0 0 0 0 0 0 0 0 0 0 0 0 0 0 0 0 0
3 3 3 3 3 0 3 0 0 0 0 0 0 0 0 0 0 0 0 0 0 0 0 0 0 0 0 0 0 0 0 0 0 0 0 0 0 0 0 0 0 0 0
3 3 3 3 0 0 0 0 0 0 0 0 0 0 0 0 0 0 0 0 0 0 0 0 0 0 0 0 0 0 0 0 0 0 0 0 0 0 0 0 0 0 0
0 3 3 0 0 0 0 0 0 0 0 0 0 0 0 0 0 0 0 0 0 0 0 0 0 0 0 0 0 0 0 0 0 0 0 0 0 0 0 0 0 0 0
0 0 3 0 0 0 0 0 0 0 0 0 0 0 0 0 0 0 0 0 0 0 0 0 0 0 0 0 0 0 0 0 0 0 0 0 0 0 0 0 0 0 0
0 0 0 0 0 0 0 0 0 0 0 0 0 0 0 0 0 0 0 0 0 0 0 0 0 0 0 0 0 0 0 0 0 0 0 0 0 0 0 0 0 0 0
0 0 0 0 0 0 0 0 0 0 0 0 0 0 0 0 0 0 0 0 0 0 0 0 0 0 0 0 0 0 0 0 0 0 0 0 0 0 0 0 0 0 0
0 0 0 0 0 0 0 0 0 0 0 0 0 0 0 0 0 0 0 0 0 0 0 0 0 0 0 0 0 0 0 0 0 0 0 0 0 0 0 0 0 0 0
0 0 0 0 0 0 0 0 0 0 0 0 0 0 0 0 0 0 0 0 0 0 0 0 0 0 0 0 0 0 0 0 0 0 0 0 0 0 0 0 0 0 0
0 0 0 0 0 0 0 0 0 0 0 0 0 0 0 0 0 0 0 0 0 0 0 0 0 0 0 0 0 0 0 0 0 0 0 0 0 0 0 0 0 0 0
0 0 0 0 0 0 0 0 0 0 0 0 0 0 0 0 0 0 0 0 0 0 0 0 0 0 0 0 0 0 0 0 0 0 0 0 0 0 0 0 0 0 0
0 0 0 0 0 0 0 0 0 0 0 0 0 0 0 0 0 0 0 0 0 0 0 0 0 0 0 0 0 0 0 0 0 0 0 0 0 0 0 0 0 0 0
0 0 0 0 0 0 0 0 0 0 0 0 0 0 0 0 0 0 0 0 0 0 0 0 0 0 0 0 0 0 0 0 0 0 0 0 0 0 0 0 0 0 0
0 0 0 0 0 0 0 0 0 0 0 0 0 0 0 0 0 0 0 0 0 0 0 0 0 0 0 0 0 0 0 0 0 0 0 0 0 0 0 0 0 0 0
0 0 0 0 0 0 0 0 0 0 0 0 0 0 0 0 0 0 0 0 0 0 0 0 0 0 0 0 0 0 0 0 0 0 0 0 0 0 0 0 0 0 0
0 0 0 0 0 0 0 0 0 0 0 0 0 0 0 0 0 0 0 0 0 0 0 0 0 0 0 0 0 0 0 0 0 0 0 0 0 0 0 0 0 0 0
0 0 0 0 0 0 0 0 0 0 0 0 0 0 0 0 0 0 0 0 0 0 0 0 0 0 0 0 0 0 0 0 0 0 0 0 0 0 0 0 0 0 0
0 0 0 0 0 0 0 0 0 0 0 0 0 0 0 0 0 0 0 0 0 0 0 0 0 0 0 0 0 0 0 0 0 0 0 0 0 0 0 0 0 0 0
Height
5789 5789 5789 5789 5789 5788 5788 5787 5787 5786 5785 5785 5784 5784 5783 5782 5781 5780 5779 5778 5776 5775 5774 5773 5772 5771 5770 5769 5768 5768 5767 5767 5767 5768 5768 5769 5770 5771 5772 5773 5774 5775 5776
5784 5784 5784 5783 5783 5783 5782 5782 5781 5780 5780 5779 5779 5778 5777 5776 5775 5774 5773 5772 5771 5770 5769 5768 5767 5766 5765 5764 5764 5763 5763 5763 5763 5763 5763 5764 5765 5766 5767 5768 5769 5770 5770
5778 5778 5778 5778 5778 5777 5777 5776 5775 5775 5774 5773 5773 5772 5771 5770 5770 5768 5767 5767 5766 5765 5764 5763 5762 5761 5760 5759 5759 5758 5758 5758 5758 5758 5758 5759 5760 5761 5762 5763 5764 5764 5765
5773 5773 5772 5772 5771 5771 5770 5770 5769 5769 5768 5768 5767 5766 5765 5764 5763 5762 5762 5761 5760 5759 5758 5757 5756 5755 5754 5754 5753 5753 5753 5752 5752 5753 5753 5754 5755 5756 5757 5758 5758 5759 5759
5767 5767 5766 5766 5765 5764 5764 5763 5763 5762 5762 5761 5761 5760 5759 5758 5757 5756 5755 5755 5754 5753 5752 5751 5750 5749 5748 5748 5747 5747 5747 5747 5747 5747 5747 5749 5749 5751 5752 5752 5753 5753 5753
5760 5760 5760 5759 5759 5758 5758 5757 5757 5756 5756 5755 5754 5753 5753 5752 5751 5750 5749 5748 5747 5746 5745 5745 5744 5743 5742 5742 5741 5741 5741 5741 5741 5741 5742 5742 5743 5744 5745 5746 5746 5747 5748
5753 5753 5753 5753 5753 5752 5751 5751 5750 5750 5749 5749 5748 5747 5746 5746 5745 5744 5743 5742 5741 5740 5739 5738 5738 5737 5736 5736 5735 5735 5735 5735 5735 5735 5736 5736 5737 5738 5739 5740 5740 5740 5741
5746 5746 5746 5746 5746 5746 5745 5744 5744 5743 5743 5742 5741 5740 5740 5739 5738 5737 5737 5736 5734 5733 5732 5732 5731 5730 5730 5730 5729 5729 5729 5729 5729 5729 5729 5730 5730 5731 5732 5733 5733 5734 5734
5739 5739 5739 5739 5739 5738 5738 5738 5737 5737 5736 5735 5734 5733 5733 5732 5731 5731 5730 5729 5728 5727 5726 5725 5724 5724 5723 5723 5723 5723 5723 5722 5722 5722 5722 5723 5723 5724 5725 5726 5726 5727 5727
5732 5732 5732 5732 5731 5731 5731 5731 5730 5730 5729 5728 5727 5727 5726 5725 5724 5724 5723 5722 5721 5720 5719 5719 5718 5717 5716 5716 5716 5716 5716 5716 5716 5716 5716 5716 5717 5717 5718 5719 5719 5720 5720
5725 5724 5724 5724 5724 5724 5724 5724 5723 5723 5722 5721 5720 5719 5719 5718 5717 5716 5716 5715 5714 5713 5712 5712 5711 5710 5709 5708 5708 5708 5708 5708 5708 5708 5708 5709 5709 5710 5711 5711 5712 5712 5712
5716 5716 5716 5716 5716 5716 5716 5715 5715 5715 5714 5713 5713 5712 5711 5710 5710 5709 5708 5707 5706 5706 5705 5704 5703 5702 5701 5701 5701 5701 5700 5700 5700 5700 5700 5701 5702 5702 5703 5704 5704 5704 5704
5708 5708 5708 5707 5707 5707 5707 5707 5707 5707 5706 5706 5705 5704 5703 5702 5702 5701 5700 5699 5698 5698 5697 5696 5695 5694 5693 5693 5692 5692 5692 5691 5691 5692 5692 5693 5694 5694 5695 5695 5696 5696 5696
5699 5699 5699 5699 5698 5698 5698 5698 5698 5698 5697 5697 5696 5696 5695 5694 5693 5693 5692 5691 5690 5689 5688 5687 5686 5686 5685 5684 5684 5684 5683 5683 5683 5684 5684 5685 5685 5685 5686 5687 5688 5688 5688
5691 5690 5690 5690 5690 5689 5689 5689 5688 5688 5688 5688 5687 5686 5686 5685 5684 5683 5683 5682 5681 5680 5679 5678 5677 5677 5676 5676 5675 5675 5674 5674 5674 5675 5675 5676 5676 5677 5677 5678 5679 5679 5680
5682 5682 5681 5681 5681 5680 5679 5679 5678 5678 5678 5677 5676 5676 5675 5675 5674 5673 5673 5672 5671 5671 5670 5669 5668 5668 5667 5666 5666 5666 5665 5665 5666 5666 5667 5667 5667 5668 5668 5669 5670 5670 5671
5673 5673 5672 5672 5671 5671 5670 5669 5669 5668 5667 5667 5666 5666 5665 5664 5664 5663 5662 5662 5661 5660 5660 5659 5659 5658 5657 5657 5656 5656 5656 5656 5656 5657 5657 5657 5658 5658 5659 5660 5660 5661 5662
5664 5663 5663 5663 5662 5661 5661 5660 5659 5658 5658 5657 5656 5655 5655 5654 5653 5653 5652 5651 5651 5650 5650 5649 5649 5648 5648 5647 5647 5647 5646 5646 5646 5646 5647 5648 5648 5649 5649 5650 5651 5652 5652
5654 5654 5653 5653 5652 5652 5651 5650 5649 5648 5648 5647 5647 5646 5645 5643 5642 5642 5641 5641 5640 5640 5639 5639 5639 5638 5638 5637 5637 5637 5636 5636 5636 5637 5637 5638 5638 5639 5640 5641 5641 5642 5643
5645 5644 5644 5643 5643 5642 5642 5641 5640 5639 5638 5637 5636 5636 5634 5633 5632 5632 5631 5630 5629 5629 5629 5628 5628 5628 5627 5627 5627 5626 5626 5626 5626 5627 5627 5628 5629 5629 5630 5631 5632 5633 5633
5636 5635 5634 5634 5633 5632 5632 5631 5630 5629 5628 5627 5626 5625 5624 5623 5622 5621 5620 5619 5618 5618 5618 5617 5617 5617 5616 5616 5616 5616 5616 5616 5616 5617 5617 5618 5619 5619 5620 5621 5622 5623 5624
5626 5626 5625 5624 5624 5623 5622 5621 5620 5618 5617 5616 5615 5614 5613 5612 5611 5610 5609 5608 5607 5607 5607 5606 5606 5606 5605 5605 5605 5605 5605 5605 5606 5607 5607 5608 5609 5610 5611 5612 5613 5613 5614
5617 5616 5616 5615 5613 5612 5611 5610 5609 5608 5607 5606 5605 5604 5602 5601 5600 5599 5598 5597 5596 5596 5595 5595 5595 5595 5594 5594 5594 5594 5595 5595 5596 5597 5597 5598 5599 5600 5601 5602 5603 5604 5604
5607 5606 5606 5605 5604 5602 5601 5600 5599 5598 5597 5595 5594 5593 5592 5590 5589 5588 5587 5586 5585 5584 5584 5584 5584 5584 5584 5583 5583 5583 5584 5585 5586 5587 5587 5588 5589 5590 5591 5592 5593 5594 5595
5597 5597 5596 5595 5594 5593 5592 5590 5589 5588 5586 5585 5584 5583 5581 5580 5579 5578 5577 5575 5575 5574 5574 5573 5573 5573 5573 5573 5573 5573 5574 5574 5575 5576 5577 5578 5579 5580 5581 5582 5583 5584 5585
5588 5587 5586 5585 5584 5583 5582 5580 5579 5578 5576 5575 5574 5573 5571 5570 5569 5567 5566 5566 5565 5565 5564 5564 5563 5563 5563 5563 5563 5563 5564 5564 5565 5566 5567 5568 5569 5570 5571 5572 5573 5574 5574
Wind_Speed
16 15 16 16 17 17 18 18 18 18 19 19 18 19 19 19 20 20 19 19 19 19 18 18 17 17 17 17 17 17 17 17 17 17 17 18 18 18 18 19 20 20 20
16 16 17 17 18 18 18 18 19 19 19 19 19 19 20 20 20 21 20 20 19 19 19 18 18 18 18 18 18 18 18 17 17 17 17 17 18 18 18 19 19 19 19
17 17 18 18 19 19 19 19 19 19 19 20 20 20 20 20 20 20 20 20 20 20 20 19 19 19 19 19 19 18 19 19 18 18 18 18 18 18 18 19 19 19 20
19 19 19 20 20 21 20 20 19 19 20 20 20 21 21 21 20 20 20 21 21 21 20 19 20 20 20 20 20 19 19 19 19 19 19 19 19 19 19 19 20 20 20
19 20 20 21 21 21 21 20 20 20 20 21 21 21 21 21 21 21 21 21 21 21 21 20 20 20 20 20 20 20 20 20 20 20 20 20 20 20 20 20 20 20 21
20 20 21 21 21 21 21 21 21 21 21 21 21 21 22 22 22 21 21 21 21 21 21 21 21 21 20 20 20 20 20 20 21 21 21 21 21 21 21 21 21 21 21
21 21 21 21 21 21 22 22 22 22 21 22 22 22 22 22 22 22 22 22 22 22 22 22 21 21 21 21 21 21 21 21 21 21 21 22 22 21 21 21 22 22 22
23 23 23 23 22 22 22 22 23 23 23 23 23 23 23 23 23 23 23 23 23 22 23 22 22 22 23 23 23 23 23 22 22 22 21 22 22 22 22 22 22 22 22
24 24 24 24 23 23 22 22 23 23 23 24 24 24 24 23 24 23 24 23 23 23 22 22 22 23 23 24 24 24 23 23 23 22 22 22 22 22 23 22 22 23 22
24 24 24 24 24 23 23 23 23 23 24 24 25 25 25 25 25 25 25 24 24 24 24 24 23 23 24 24 25 25 24 24 24 24 23 23 23 22 22 22 23 24 23
26 26 26 25 25 25 25 25 25 24 25 25 25 25 26 26 26 26 26 25 25 25 25 25 25 25 25 25 25 25 25 26 26 25 25 25 25 24 24 24 24 24 24
27 27 27 27 26 26 27 27 26 26 26 26 25 25 26 26 26 26 26 26 26 26 26 26 26 26 26 26 26 26 27 28 28 27 28 28 27 25 25 25 25 25 25
29 29 28 28 28 28 28 29 29 28 28 27 27 27 27 27 27 28 27 27 27 28 28 28 28 27 27 27 27 27 28 28 28 28 28 28 27 27 26 26 25 25 25
30 29 29 29 29 29 29 30 30 30 29 29 29 28 28 28 29 29 29 29 28 29 29 30 30 29 28 28 28 28 28 28 29 29 28 28 28 27 27 27 27 27 26
29 29 29 30 30 30 30 30 30 30 30 30 30 30 30 30 30 30 30 30 30 30 30 31 31 30 30 29 29 29 29 29 28 27 28 28 29 29 29 29 29 28 28
29 29 29 29 30 30 30 31 31 31 31 32 32 32 31 31 31 31 32 32 32 32 32 32 32 31 31 30 30 30 30 30 29 28 28 29 29 30 30 30 29 29 29
29 29 30 30 30 30 30 30 30 31 32 32 32 31 31 31 32 32 32 32 32 33 32 32 32 31 31 31 31 31 31 30 30 30 29 30 30 30 30 30 29 30 30
29 29 30 30 30 30 30 30 30 30 31 31 32 32 32 33 33 33 33 32 32 33 33 32 32 32 32 31 31 31 31 30 29 29 30 31 31 31 31 30 30 30 29
29 29 29 30 30 30 30 30 31 31 31 31 32 32 32 33 33 34 33 33 33 34 33 33 32 32 33 33 33 32 32 31 30 29 30 30 31 31 31 30 30 30 29
29 29 30 30 30 30 30 30 31 32 31 31 32 32 33 34 34 34 34 34 34 34 34 34 34 34 34 34 34 33 32 31 30 29 29 30 30 30 30 29 29 29 29
29 29 29 29 30 30 31 31 31 32 32 32 32 32 33 33 34 34 34 34 34 34 34 34 34 34 34 34 34 33 32 31 31 30 30 30 30 30 30 30 30 30 30
29 29 29 30 30 30 30 31 31 31 31 32 32 32 33 33 33 34 34 34 34 34 34 34 33 33 33 33 33 32 32 31 31 30 30 30 30 30 30 30 30 31 30
29 29 29 30 31 31 31 31 31 31 32 32 32 32 32 32 33 33 33 33 33 34 33 33 33 32 32 31 31 31 31 31 30 30 29 29 29 29 30 30 30 30 30
29 29 30 31 30 30 30 31 31 31 31 32 32 32 32 32 32 32 32 32 33 33 32 32 32 31 30 30 30 30 31 30 30 29 29 29 29 29 29 29 29 30 30
30 30 30 31 30 30 30 31 31 31 31 31 31 31 31 31 31 31 31 31 30 31 31 31 31 30 29 29 29 29 29 29 29 29 29 29 29 29 29 30 30 30 31
29 30 30 29 30 30 30 30 30 30 30 30 30 31 31 31 31 31 30 30 30 30 30 30 30 29 29 29 29 28 28 28 28 28 29 29 30 29 30 30 31 31 32
Wind_Direction
270 271 272 274 275 274 276 275 275 276 277 279 280 280 279 279 279 281 284 286 286 286 286 287 287 285 282 280 278 277 275 273 270 269 266 262 259 260 262 263 263 264 267
267 270 272 273 277 277 277 278 278 278 279 280 280 282 282 282 282 282 283 284 285 284 282 282 283 283 282 280 278 276 275 273 271 268 264 262 260 261 264 265 265 265 266
270 271 273 274 277 280 279 279 279 280 280 281 281 281 281 282 283 282 282 282 282 283 281 280 281 281 280 279 278 277 275 273 271 268 265 262 261 263 265 267 267 266 267
270 271 273 274 277 277 277 279 280 280 280 281 281 280 281 282 282 282 283 283 281 281 280 279 279 280 279 278 277 276 275 273 271 269 266 264 263 263 265 266 266 267 268
271 271 273 275 277 277 276 278 279 279 280 281 281 280 281 281 281 281 282 282 282 280 278 278 278 279 278 277 275 275 274 273 272 271 268 265 263 264 266 268 267 266 268
270 271 272 273 275 276 276 276 278 279 279 280 281 279 279 280 280 281 281 283 284 281 279 278 277 276 276 275 274 274 274 273 272 271 269 265 264 264 265 267 268 267 270
272 272 272 272 274 275 275 275 277 277 279 280 279 279 278 279 278 279 282 283 283 282 280 279 277 275 274 275 273 273 273 272 271 271 269 266 265 263 264 267 269 268 270
273 272 272 271 272 272 274 275 275 276 278 280 279 278 277 276 277 279 281 283 283 281 280 278 278 276 274 273 271 271 272 271 270 270 269 268 266 263 265 268 270 270 272
272 272 272 272 272 272 272 275 276 276 278 279 278 277 277 277 276 277 279 283 284 284 283 280 279 277 274 272 271 271 270 270 270 268 268 267 266 267 268 269 270 271 273
272 272 272 271 271 272 272 274 276 278 277 278 277 275 276 277 277 277 279 280 282 282 282 281 280 278 275 273 272 272 270 269 270 269 267 266 266 268 269 270 271 272 274
272 273 272 271 272 271 271 272 274 276 277 277 277 275 274 275 276 278 279 280 281 281 282 282 281 278 276 274 273 271 270 268 268 267 265 263 263 266 267 268 269 271 272
272 273 272 271 271 270 271 272 273 274 276 276 276 276 274 274 276 277 279 279 280 281 281 281 281 278 277 276 274 272 270 269 267 266 264 263 263 265 266 267 268 268 268
273 273 273 272 270 270 271 271 272 274 275 276 276 276 276 275 275 277 279 279 280 282 282 281 280 278 276 276 275 272 270 269 268 267 264 263 264 265 265 265 266 267 268
270 271 273 272 272 271 271 272 272 273 274 275 275 277 276 275 275 276 278 280 280 281 281 280 279 278 276 276 276 274 271 270 269 267 264 264 264 264 264 264 265 267 267
270 271 273 272 272 271 271 273 273 273 273 274 275 275 275 275 274 274 276 277 279 280 280 280 279 278 276 276 276 275 273 270 269 267 267 267 265 264 264 264 265 266 267
271 271 272 274 274 274 273 272 273 274 274 274 274 275 275 274 274 275 275 276 277 278 278 279 279 278 277 276 275 274 272 269 266 267 269 269 266 265 265 264 264 265 266
271 271 272 273 275 276 276 275 274 275 276 275 276 276 275 276 277 278 277 276 277 278 278 278 278 278 278 276 274 273 271 268 267 267 267 267 266 266 266 265 264 264 265
272 273 274 275 275 275 276 277 276 276 276 276 276 277 277 277 276 277 278 277 277 277 278 278 277 276 276 275 274 272 270 270 270 268 266 265 265 266 266 266 266 265 265
272 273 274 274 275 276 276 277 278 278 277 276 276 277 277 277 276 276 276 276 276 276 276 276 276 275 274 274 274 272 270 270 270 270 268 266 266 266 266 265 266 266 266
272 273 273 275 276 277 277 278 279 280 280 278 277 276 276 276 276 276 277 277 276 275 275 275 275 275 274 275 275 273 271 270 269 269 269 268 266 266 265 265 265 265 266
272 273 274 275 277 278 279 279 280 280 280 280 278 277 277 277 277 276 276 276 276 275 275 274 274 275 275 274 274 273 272 269 268 267 268 268 268 266 265 264 264 265 265
273 274 275 277 278 278 278 279 280 280 281 280 280 279 279 279 279 277 276 276 276 275 274 274 274 275 275 274 273 273 272 270 268 267 267 267 267 265 265 264 264 265 266
274 275 277 278 279 279 279 278 279 281 281 281 281 281 280 280 279 278 277 277 277 276 274 274 275 275 275 275 274 272 271 269 268 267 268 267 266 266 265 265 264 265 266
276 276 278 280 280 280 281 281 281 282 282 282 282 281 281 280 280 279 279 278 277 274 273 273 274 274 274 273 273 272 269 267 267 266 264 265 266 265 265 264 264 265 266
277 277 279 280 280 279 281 283 283 283 282 282 282 281 281 280 280 281 280 278 276 275 274 274 273 273 272 272 272 270 267 265 264 264 263 263 265 265 265 265 265 266 266
278 279 279 279 278 278 280 282 284 284 282 282 282 282 282 282 281 280 279 278 276 275 275 275 274 273 272 271 270 269 267 265 265 264 263 263 263 264 265 265 266 267 267